NOAA 16 DEB, 41496

Orbit data source: Space-Track

NOAA 16 DEB, 41496 is space debris in SSO originally from a launch on Thu, 21 Sep 2000 UTC launched from the Air Force Western Test Range (AFWTR). Debris objects in space refer to the collection of defunct objects orbiting the Earth. Examples of debris include non-operational satellites, rocket bodies, and fragments generated from explosions, collisions, or faulty payload assembly.

Loading next visibility...
Identifier
41496, 2000-055LU
Orbit
SSO
Country
Flag of USUS
Related business
Manufacturer
Unknown
Mission
Spacecraft
Bus & Motor
Unknown
Mass
Unknown
Launch date (UTC)
2000-09-21 (25 years ago)
Launch vehicle
Unknown
Launch site
Air Force Western Test Range (AFWTR)
Object type
Payload
Rocket body
Debris
Shape & HBR
Unknown shape, 0.1 m
Radar Cross Section
Small (<0.1 m²)

Expand to show TLE details & history
Last TLE update: 10 hours ago

TLE from 10 hours ago
0 NOAA 16 DEB
1 41496U 00055LU  25343.50394054  .00008549  00000-0  29467-2 0  9997
2 41496  98.7288  81.3394 0014785  39.4556 320.7703 14.36074989506074
Epoch: 2025-12-09T12:05Z
TLE epoch observation values (Epoch: 2025-12-09T12:05:40.462Z)
Latitude
-0.00004°
Longitude
-178.56686°
Altitude
766.248 km
Speed
7.475 km/s
True Right ascension
05h 25m 21s
True Declination
0° 00' 00"
Sunlit
Object was in full shadow at epoch
Visualization orbit readout
Latitude
Unknown
Longitude
Unknown
Altitude
Unknown
Speed
Unknown
Apparent Right ascension
Unknown
Apparent Declination
Unknown
Sunlit
N/A
Visualization observer readout
Local Sidereal Time
19:56:27
Azimuth
Unknown
Elevation
Unknown
Doppler factor
Unknown
Orbital elements
Apogee altitude
779.201 km
Perigee altitude
758.068 km
Semi-major axis
7,146.771 km
Eccentricity
0.00148
Inclination
98.7288°
RAAN
81.3394°
Arg. of periapsis
39.4556°
True anomaly
320.663°
Mean anomaly
320.7703°
Eccentric anomaly
320.71666°
Mean motion
3.59235 °/min
Orbital period
100.21 mins
BSTAR
0.0029467
Loading maneuver chart data...
Computing Atmospheric mass density...
Loading historical data...
Loading historical data...
Loading historical data...
Loading historical data...
Loading historical data...
Loading historical data...
Loading historical data...

Documentation

Showing up to 5 results
|